Wetterdaten: Montag, 04.05.2015
Datum Zeit Temp. A. Feuchte A. Luftdruck Regen Wind Richtung Richtung Sonnenschein ET UV Solar Taupunkt Windchill Windben Empfang
04.05.2015 00:00 13,6 C 98 % 1008,7 hPa 0,0 l/m 0,0 km/h (0 Bft) S 170 0 min 0,000 mm 0,0 UV-I 0 W/m 13,3 C 13,6 C 0,0 km/h (0 Bft) 0,00 %
04.05.2015 00:15 13,6 C 98 % 1008,7 hPa 0,0 l/m 0,0 km/h (0 Bft) O-SO 119 0 min 0,000 mm 0,0 UV-I 0 W/m 13,3 C 13,6 C 0,0 km/h (0 Bft) 0,00 %
04.05.2015 00:30 13,6 C 98 % 1008,6 hPa 0,0 l/m 0,0 km/h (0 Bft) SO 132 0 min 0,000 mm 0,0 UV-I 0 W/m 13,3 C 13,6 C 0,0 km/h (0 Bft) 0,00 %
04.05.2015 00:45 13,6 C 98 % 1008,7 hPa 0,0 l/m 0,0 km/h (0 Bft) S 174 0 min 0,000 mm 0,0 UV-I 0 W/m 13,3 C 13,6 C 0,0 km/h (0 Bft) 0,00 %
04.05.2015 01:00 13,6 C 98 % 1008,6 hPa 0,0 l/m 0,0 km/h (0 Bft) S 173 0 min 0,000 mm 0,0 UV-I 0 W/m 13,3 C 13,6 C 0,0 km/h (0 Bft) 0,00 %
04.05.2015 01:15 13,5 C 98 % 1008,6 hPa 0,0 l/m 0,0 km/h (0 Bft) S 173 0 min 0,000 mm 0,0 UV-I 0 W/m 13,2 C 13,5 C 0,0 km/h (0 Bft) 0,00 %
04.05.2015 01:30 13,5 C 98 % 1008,3 hPa 0,0 l/m 0,0 km/h (0 Bft) S 182 0 min 0,000 mm 0,0 UV-I 0 W/m 13,2 C 13,5 C 0,0 km/h (0 Bft) 0,00 %
04.05.2015 01:45 13,5 C 98 % 1008,4 hPa 0,0 l/m 0,0 km/h (0 Bft) SO 146 0 min 0,000 mm 0,0 UV-I 0 W/m 13,2 C 13,5 C 0,0 km/h (0 Bft) 0,00 %
04.05.2015 02:00 13,4 C 99 % 1008,5 hPa 0,0 l/m 0,0 km/h (0 Bft) S-SO 156 0 min 0,000 mm 0,0 UV-I 0 W/m 13,2 C 13,4 C 0,0 km/h (0 Bft) 0,00 %
04.05.2015 02:15 13,4 C 99 % 1008,6 hPa 0,0 l/m 1,8 km/h (1 Bft) W 271 0 min 0,000 mm 0,0 UV-I 0 W/m 13,2 C 13,4 C 4,0 km/h (1 Bft) 0,00 %
04.05.2015 02:30 13,3 C 99 % 1008,7 hPa 0,0 l/m 0,0 km/h (0 Bft) S 190 0 min 0,000 mm 0,0 UV-I 0 W/m 13,1 C 13,3 C 0,0 km/h (0 Bft) 0,00 %
04.05.2015 02:45 13,3 C 99 % 1008,7 hPa 0,0 l/m 0,0 km/h (0 Bft) S-SW 192 0 min 0,000 mm 0,0 UV-I 0 W/m 13,1 C 13,3 C 0,0 km/h (0 Bft) 0,00 %
04.05.2015 03:00 13,3 C 99 % 1008,5 hPa 0,0 l/m 0,0 km/h (0 Bft) S-SW 205 0 min 0,000 mm 0,0 UV-I 0 W/m 13,1 C 13,3 C 0,0 km/h (0 Bft) 0,00 %
04.05.2015 03:15 13,3 C 99 % 1009,1 hPa 0,0 l/m 0,0 km/h (0 Bft) S 182 0 min 0,000 mm 0,0 UV-I 0 W/m 13,1 C 13,3 C 0,0 km/h (0 Bft) 0,00 %
04.05.2015 03:30 13,2 C 99 % 1009,0 hPa 0,0 l/m 0,0 km/h (0 Bft) S 186 0 min 0,000 mm 0,0 UV-I 0 W/m 13,0 C 13,2 C 0,0 km/h (0 Bft) 0,00 %
04.05.2015 03:45 13,2 C 99 % 1009,1 hPa 0,0 l/m 0,0 km/h (0 Bft) S-SW 200 0 min 0,000 mm 0,0 UV-I 0 W/m 13,0 C 13,2 C 0,0 km/h (0 Bft) 0,00 %
04.05.2015 04:00 13,2 C 99 % 1009,5 hPa 0,0 l/m 0,0 km/h (0 Bft) S-SW 197 0 min 0,000 mm 0,0 UV-I 0 W/m 13,0 C 13,2 C 0,0 km/h (0 Bft) 0,00 %
04.05.2015 04:15 13,1 C 99 % 1009,4 hPa 0,6 l/m 0,0 km/h (0 Bft) S 188 0 min 0,000 mm 0,0 UV-I 0 W/m 12,9 C 13,1 C 0,0 km/h (0 Bft) 0,00 %
04.05.2015 04:30 13,2 C 99 % 1009,3 hPa 0,0 l/m 0,0 km/h (0 Bft) S 185 0 min 0,000 mm 0,0 UV-I 0 W/m 13,0 C 13,2 C 0,0 km/h (0 Bft) 0,00 %
04.05.2015 04:45 13,3 C 99 % 1009,4 hPa 0,0 l/m 0,0 km/h (0 Bft) S 187 0 min 0,000 mm 0,0 UV-I 0 W/m 13,1 C 13,3 C 0,0 km/h (0 Bft) 0,00 %
04.05.2015 05:00 13,4 C 99 % 1009,4 hPa 0,3 l/m 0,0 km/h (0 Bft) S 185 0 min 0,000 mm 0,0 UV-I 0 W/m 13,2 C 13,4 C 0,0 km/h (0 Bft) 0,00 %
04.05.2015 05:15 13,4 C 98 % 1009,3 hPa 0,0 l/m 0,0 km/h (0 Bft) S-SW 203 0 min 0,000 mm 0,0 UV-I 0 W/m 13,1 C 13,4 C 0,0 km/h (0 Bft) 0,00 %
04.05.2015 05:30 13,5 C 98 % 1009,6 hPa 0,0 l/m 0,0 km/h (0 Bft) S 182 0 min 0,000 mm 0,0 UV-I 0 W/m 13,2 C 13,5 C 0,0 km/h (0 Bft) 0,00 %
04.05.2015 05:45 13,4 C 97 % 1009,6 hPa 0,0 l/m 0,0 km/h (0 Bft) S 182 0 min 0,000 mm 0,0 UV-I 0 W/m 12,9 C 13,4 C 0,0 km/h (0 Bft) 0,00 %
04.05.2015 06:00 13,4 C 97 % 1009,7 hPa 0,0 l/m 0,0 km/h (0 Bft) S 181 0 min 0,000 mm 0,0 UV-I 0 W/m 12,9 C 13,4 C 0,0 km/h (0 Bft) 0,00 %
04.05.2015 06:15 13,5 C 97 % 1009,9 hPa 0,0 l/m 0,0 km/h (0 Bft) S-SW 196 0 min 0,000 mm 0,0 UV-I 11 W/m 13,0 C 13,5 C 0,0 km/h (0 Bft) 0,00 %
04.05.2015 06:30 13,6 C 98 % 1010,0 hPa 0,0 l/m 0,0 km/h (0 Bft) S-SW 193 0 min 0,000 mm 0,0 UV-I 28 W/m 13,3 C 13,6 C 0,0 km/h (0 Bft) 0,00 %
04.05.2015 06:45 13,7 C 97 % 1010,3 hPa 0,0 l/m 0,0 km/h (0 Bft) S 182 0 min 0,000 mm 0,0 UV-I 7 W/m 13,2 C 13,7 C 0,0 km/h (0 Bft) 0,00 %
04.05.2015 07:00 13,7 C 98 % 1010,6 hPa 0,0 l/m 0,0 km/h (0 Bft) S 189 0 min 0,000 mm 0,0 UV-I 24 W/m 13,4 C 13,7 C 0,0 km/h (0 Bft) 0,00 %
04.05.2015 07:15 13,8 C 97 % 1010,8 hPa 0,0 l/m 0,0 km/h (0 Bft) S-SW 197 0 min 0,000 mm 0,0 UV-I 18 W/m 13,3 C 13,8 C 0,0 km/h (0 Bft) 0,00 %
04.05.2015 07:30 14,0 C 98 % 1010,7 hPa 0,0 l/m 0,0 km/h (0 Bft) S 185 0 min 0,000 mm 1,0 UV-I 93 W/m 13,7 C 14,0 C 0,0 km/h (0 Bft) 0,00 %
04.05.2015 07:45 14,4 C 96 % 1010,8 hPa 0,0 l/m 0,0 km/h (0 Bft) S 179 0 min 0,000 mm 1,0 UV-I 86 W/m 13,8 C 14,4 C 0,0 km/h (0 Bft) 0,00 %
04.05.2015 08:00 14,5 C 96 % 1010,8 hPa 0,0 l/m 0,0 km/h (0 Bft) S-SW 213 0 min 0,000 mm 1,0 UV-I 55 W/m 13,9 C 14,5 C 0,0 km/h (0 Bft) 0,00 %
04.05.2015 08:15 14,5 C 96 % 1011,0 hPa 0,0 l/m 0,0 km/h (0 Bft) S 178 0 min 0,000 mm 0,0 UV-I 62 W/m 13,9 C 14,5 C 0,0 km/h (0 Bft) 0,00 %
04.05.2015 08:30 14,5 C 95 % 1011,0 hPa 0,0 l/m 0,0 km/h (0 Bft) S 188 0 min 0,000 mm 1,0 UV-I 78 W/m 13,7 C 14,5 C 0,0 km/h (0 Bft) 0,00 %
04.05.2015 08:45 14,8 C 94 % 1011,2 hPa 0,0 l/m 0,4 km/h (0 Bft) S-SW 206 0 min 0,000 mm 1,0 UV-I 125 W/m 13,8 C 14,8 C 4,0 km/h (1 Bft) 0,00 %
04.05.2015 09:00 15,2 C 92 % 1010,8 hPa 0,0 l/m 0,7 km/h (0 Bft) W-SW 245 0 min 0,000 mm 1,0 UV-I 130 W/m 13,9 C 15,2 C 4,0 km/h (1 Bft) 0,00 %
04.05.2015 09:15 15,8 C 88 % 1010,7 hPa 0,0 l/m 0,0 km/h (0 Bft) SW 229 0 min 0,000 mm 1,0 UV-I 139 W/m 13,8 C 15,8 C 0,0 km/h (0 Bft) 0,00 %
04.05.2015 09:30 16,3 C 83 % 1010,4 hPa 0,0 l/m 1,4 km/h (1 Bft) W-SW 255 0 min 0,000 mm 2,0 UV-I 141 W/m 13,4 C 16,3 C 4,0 km/h (1 Bft) 0,00 %
04.05.2015 09:45 16,9 C 82 % 1010,4 hPa 0,0 l/m 1,4 km/h (1 Bft) S-SW 207 0 min 0,000 mm 1,0 UV-I 233 W/m 13,8 C 16,9 C 4,0 km/h (1 Bft) 0,00 %
04.05.2015 10:00 17,1 C 83 % 1010,5 hPa 0,0 l/m 0,0 km/h (0 Bft) S-SW 210 0 min 0,000 mm 2,0 UV-I 197 W/m 14,2 C 17,1 C 0,0 km/h (0 Bft) 0,00 %
04.05.2015 10:15 17,4 C 82 % 1010,5 hPa 0,0 l/m 1,4 km/h (1 Bft) W-SW 251 0 min 0,000 mm 2,0 UV-I 314 W/m 14,3 C 17,4 C 4,0 km/h (1 Bft) 0,00 %
04.05.2015 10:30 17,7 C 80 % 1010,4 hPa 0,0 l/m 0,0 km/h (0 Bft) S-SW 193 0 min 0,000 mm 3,0 UV-I 309 W/m 14,2 C 17,7 C 0,0 km/h (0 Bft) 0,00 %
04.05.2015 10:45 18,3 C 74 % 1010,2 hPa 0,0 l/m 0,4 km/h (0 Bft) W-SW 256 0 min 0,000 mm 3,0 UV-I 327 W/m 13,6 C 18,3 C 4,0 km/h (1 Bft) 0,00 %
04.05.2015 11:00 18,9 C 72 % 1010,2 hPa 0,0 l/m 0,0 km/h (0 Bft) S-SW 195 15 min 0,000 mm 3,0 UV-I 469 W/m 13,7 C 18,9 C 0,0 km/h (0 Bft) 0,00 %
04.05.2015 11:15 19,8 C 69 % 1009,9 hPa 0,0 l/m 0,0 km/h (0 Bft) S 191 15 min 0,000 mm 4,0 UV-I 455 W/m 13,9 C 19,8 C 0,0 km/h (0 Bft) 0,00 %
04.05.2015 11:30 19,7 C 67 % 1009,9 hPa 0,0 l/m 5,4 km/h (1 Bft) W-SW 256 15 min 0,000 mm 3,0 UV-I 448 W/m 13,4 C 19,7 C 7,9 km/h (2 Bft) 0,00 %
04.05.2015 11:45 19,8 C 65 % 1009,6 hPa 0,0 l/m 0,0 km/h (0 Bft) S 184 0 min 0,000 mm 3,0 UV-I 431 W/m 13,0 C 19,8 C 0,0 km/h (0 Bft) 0,00 %
04.05.2015 12:00 19,4 C 67 % 1009,8 hPa 0,0 l/m 0,4 km/h (0 Bft) S-SW 206 0 min 0,000 mm 3,0 UV-I 371 W/m 13,1 C 19,4 C 4,0 km/h (1 Bft) 0,00 %
04.05.2015 12:15 19,5 C 65 % 1009,5 hPa 0,0 l/m 0,0 km/h (0 Bft) W-SW 256 0 min 0,000 mm 2,0 UV-I 400 W/m 12,7 C 19,5 C 0,0 km/h (0 Bft) 0,00 %
04.05.2015 12:30 19,2 C 66 % 1009,6 hPa 0,0 l/m 0,0 km/h (0 Bft) W-SW 256 0 min 0,000 mm 2,0 UV-I 331 W/m 12,7 C 19,2 C 0,0 km/h (0 Bft) 0,00 %
04.05.2015 12:45 18,8 C 69 % 1009,8 hPa 0,0 l/m 0,4 km/h (0 Bft) O-SO 123 0 min 0,000 mm 1,0 UV-I 226 W/m 13,0 C 18,8 C 4,0 km/h (1 Bft) 0,00 %
04.05.2015 13:00 18,5 C 70 % 1010,1 hPa 0,0 l/m 0,0 km/h (0 Bft) O 92 0 min 0,000 mm 2,0 UV-I 206 W/m 12,9 C 18,5 C 0,0 km/h (0 Bft) 0,00 %
04.05.2015 13:15 18,5 C 71 % 1009,9 hPa 0,0 l/m 0,4 km/h (0 Bft) N 352 0 min 0,000 mm 3,0 UV-I 303 W/m 13,1 C 18,5 C 4,0 km/h (1 Bft) 0,00 %
04.05.2015 13:30 18,9 C 71 % 1009,7 hPa 0,0 l/m 1,4 km/h (1 Bft) W-SW 256 0 min 0,000 mm 3,0 UV-I 414 W/m 13,5 C 18,9 C 4,0 km/h (1 Bft) 0,00 %
04.05.2015 13:45 19,3 C 68 % 1009,5 hPa 0,0 l/m 1,8 km/h (1 Bft) O-SO 109 15 min 0,000 mm 6,0 UV-I 481 W/m 13,2 C 19,3 C 4,0 km/h (1 Bft) 0,00 %
04.05.2015 14:00 19,9 C 64 % 1009,3 hPa 0,0 l/m 0,0 km/h (0 Bft) S-SW 213 15 min 0,000 mm 6,0 UV-I 710 W/m 12,9 C 19,9 C 0,0 km/h (0 Bft) 0,00 %
04.05.2015 14:15 20,4 C 63 % 1009,4 hPa 0,0 l/m 1,8 km/h (1 Bft) N-NW 333 15 min 0,000 mm 3,0 UV-I 453 W/m 13,1 C 20,4 C 4,0 km/h (1 Bft) 0,00 %
04.05.2015 14:30 20,5 C 64 % 1009,2 hPa 0,0 l/m 1,4 km/h (1 Bft) W-SW 255 0 min 0,000 mm 3,0 UV-I 399 W/m 13,5 C 20,5 C 4,0 km/h (1 Bft) 0,00 %
04.05.2015 14:45 20,1 C 64 % 1009,0 hPa 0,0 l/m 0,0 km/h (0 Bft) S-SW 206 0 min 0,000 mm 2,0 UV-I 297 W/m 13,1 C 20,1 C 0,0 km/h (0 Bft) 0,00 %
04.05.2015 15:00 20,6 C 64 % 1008,9 hPa 0,0 l/m 0,0 km/h (0 Bft) O 97 0 min 0,000 mm 3,0 UV-I 358 W/m 13,5 C 20,6 C 0,0 km/h (0 Bft) 0,00 %
04.05.2015 15:15 20,3 C 63 % 1008,7 hPa 0,0 l/m 0,0 km/h (0 Bft) SO 134 15 min 0,000 mm 3,0 UV-I 440 W/m 13,0 C 20,3 C 0,0 km/h (0 Bft) 0,00 %
04.05.2015 15:30 20,7 C 65 % 1008,6 hPa 0,0 l/m 0,4 km/h (0 Bft) S 180 15 min 0,000 mm 3,0 UV-I 401 W/m 13,9 C 20,7 C 4,0 km/h (1 Bft) 0,00 %
04.05.2015 15:45 20,5 C 63 % 1008,8 hPa 0,0 l/m 0,0 km/h (0 Bft) O 97 15 min 0,000 mm 3,0 UV-I 446 W/m 13,2 C 20,5 C 0,0 km/h (0 Bft) 0,00 %
04.05.2015 16:00 20,6 C 65 % 1008,5 hPa 0,0 l/m 2,9 km/h (1 Bft) N-NO 33 15 min 0,000 mm 2,0 UV-I 466 W/m 13,8 C 20,6 C 4,0 km/h (1 Bft) 0,00 %
04.05.2015 16:15 20,8 C 63 % 1008,6 hPa 0,0 l/m 5,4 km/h (1 Bft) O 89 15 min 0,000 mm 2,0 UV-I 366 W/m 13,5 C 20,8 C 7,9 km/h (2 Bft) 0,00 %
04.05.2015 16:30 20,6 C 63 % 1008,8 hPa 0,0 l/m 0,4 km/h (0 Bft) O 93 15 min 0,000 mm 2,0 UV-I 417 W/m 13,3 C 20,6 C 4,0 km/h (1 Bft) 0,00 %
04.05.2015 16:45 20,7 C 64 % 1008,5 hPa 0,0 l/m 0,0 km/h (0 Bft) SO 135 15 min 0,000 mm 2,0 UV-I 318 W/m 13,6 C 20,7 C 0,0 km/h (0 Bft) 0,00 %
04.05.2015 17:00 20,6 C 65 % 1008,7 hPa 0,0 l/m 0,0 km/h (0 Bft) S 174 0 min 0,000 mm 2,0 UV-I 280 W/m 13,8 C 20,6 C 0,0 km/h (0 Bft) 0,00 %
04.05.2015 17:15 20,6 C 66 % 1008,8 hPa 0,0 l/m 1,8 km/h (1 Bft) SO 135 15 min 0,000 mm 1,0 UV-I 269 W/m 14,0 C 20,6 C 4,0 km/h (1 Bft) 0,00 %
04.05.2015 17:30 20,6 C 65 % 1008,3 hPa 0,0 l/m 1,4 km/h (1 Bft) SO 124 15 min 0,000 mm 2,0 UV-I 320 W/m 13,8 C 20,6 C 4,0 km/h (1 Bft) 0,00 %
04.05.2015 17:45 20,9 C 66 % 1008,4 hPa 0,0 l/m 1,4 km/h (1 Bft) O-SO 118 15 min 0,000 mm 1,0 UV-I 468 W/m 14,3 C 20,9 C 4,0 km/h (1 Bft) 0,00 %
04.05.2015 18:00 20,5 C 65 % 1008,6 hPa 0,0 l/m 0,0 km/h (0 Bft) SO 143 15 min 0,000 mm 1,0 UV-I 417 W/m 13,7 C 20,5 C 0,0 km/h (0 Bft) 0,00 %
04.05.2015 18:15 20,4 C 69 % 1008,6 hPa 0,0 l/m 0,0 km/h (0 Bft) SO 143 15 min 0,000 mm 1,0 UV-I 307 W/m 14,5 C 20,4 C 0,0 km/h (0 Bft) 0,00 %
04.05.2015 18:30 20,3 C 68 % 1008,8 hPa 0,0 l/m 0,0 km/h (0 Bft) S 171 15 min 0,000 mm 1,0 UV-I 236 W/m 14,2 C 20,3 C 0,0 km/h (0 Bft) 0,00 %
04.05.2015 18:45 20,3 C 70 % 1009,0 hPa 0,0 l/m 0,0 km/h (0 Bft) S 175 15 min 0,000 mm 1,0 UV-I 165 W/m 14,6 C 20,3 C 0,0 km/h (0 Bft) 0,00 %
04.05.2015 19:00 20,1 C 71 % 1008,9 hPa 0,0 l/m 1,8 km/h (1 Bft) O-SO 120 15 min 0,000 mm 1,0 UV-I 276 W/m 14,7 C 20,1 C 4,0 km/h (1 Bft) 0,00 %
04.05.2015 19:15 19,6 C 73 % 1009,1 hPa 0,0 l/m 0,0 km/h (0 Bft) S 183 15 min 0,000 mm 1,0 UV-I 113 W/m 14,6 C 19,6 C 0,0 km/h (0 Bft) 0,00 %
04.05.2015 19:30 19,1 C 77 % 1009,5 hPa 0,0 l/m 1,4 km/h (1 Bft) SO 139 0 min 0,000 mm 0,0 UV-I 60 W/m 15,0 C 19,1 C 4,0 km/h (1 Bft) 0,00 %
04.05.2015 19:45 18,4 C 80 % 1009,9 hPa 0,0 l/m 0,0 km/h (0 Bft) S 175 0 min 0,000 mm 0,0 UV-I 32 W/m 14,9 C 18,4 C 0,0 km/h (0 Bft) 0,00 %
04.05.2015 20:00 17,9 C 80 % 1009,9 hPa 0,0 l/m 0,0 km/h (0 Bft) S-SW 207 0 min 0,000 mm 0,0 UV-I 17 W/m 14,4 C 17,9 C 0,0 km/h (0 Bft) 0,00 %
04.05.2015 20:15 17,6 C 82 % 1010,3 hPa 0,0 l/m 0,0 km/h (0 Bft) S-SW 206 0 min 0,000 mm 0,0 UV-I 0 W/m 14,5 C 17,6 C 0,0 km/h (0 Bft) 0,00 %
04.05.2015 20:30 17,4 C 81 % 1010,3 hPa 0,0 l/m 0,0 km/h (0 Bft) S-SW 202 0 min 0,000 mm 0,0 UV-I 0 W/m 14,1 C 17,4 C 0,0 km/h (0 Bft) 0,00 %
04.05.2015 20:45 17,3 C 81 % 1010,2 hPa 0,0 l/m 0,0 km/h (0 Bft) W-SW 251 0 min 0,000 mm 0,0 UV-I 0 W/m 14,0 C 17,3 C 0,0 km/h (0 Bft) 0,00 %
04.05.2015 21:00 17,1 C 82 % 1010,2 hPa 0,0 l/m 0,0 km/h (0 Bft) S 174 0 min 0,000 mm 0,0 UV-I 0 W/m 14,0 C 17,1 C 0,0 km/h (0 Bft) 0,00 %
04.05.2015 21:15 16,9 C 82 % 1010,1 hPa 0,0 l/m 0,0 km/h (0 Bft) S-SO 148 0 min 0,000 mm 0,0 UV-I 0 W/m 13,8 C 16,9 C 0,0 km/h (0 Bft) 0,00 %
04.05.2015 21:30 16,7 C 82 % 1009,8 hPa 0,0 l/m 0,0 km/h (0 Bft) S-SO 164 0 min 0,000 mm 0,0 UV-I 0 W/m 13,6 C 16,7 C 0,0 km/h (0 Bft) 0,00 %
04.05.2015 21:45 16,5 C 82 % 1009,7 hPa 0,0 l/m 0,4 km/h (0 Bft) O-SO 123 0 min 0,000 mm 0,0 UV-I 0 W/m 13,4 C 16,5 C 4,0 km/h (1 Bft) 0,00 %
04.05.2015 22:00 16,3 C 84 % 1009,7 hPa 0,0 l/m 0,0 km/h (0 Bft) SO 129 0 min 0,000 mm 0,0 UV-I 0 W/m 13,6 C 16,3 C 0,0 km/h (0 Bft) 0,00 %
04.05.2015 22:15 15,8 C 87 % 1009,8 hPa 0,0 l/m 0,0 km/h (0 Bft) SO 140 0 min 0,000 mm 0,0 UV-I 0 W/m 13,6 C 15,8 C 0,0 km/h (0 Bft) 0,00 %
04.05.2015 22:30 15,6 C 88 % 1009,7 hPa 0,0 l/m 0,0 km/h (0 Bft) S 177 0 min 0,000 mm 0,0 UV-I 0 W/m 13,6 C 15,6 C 0,0 km/h (0 Bft) 0,00 %
04.05.2015 22:45 15,7 C 88 % 1009,6 hPa 0,0 l/m 1,4 km/h (1 Bft) SO 125 0 min 0,000 mm 0,0 UV-I 0 W/m 13,7 C 15,7 C 4,0 km/h (1 Bft) 0,00 %
04.05.2015 23:00 15,4 C 90 % 1009,4 hPa 0,0 l/m 0,0 km/h (0 Bft) SO 125 0 min 0,000 mm 0,0 UV-I 0 W/m 13,8 C 15,4 C 0,0 km/h (0 Bft) 0,00 %
04.05.2015 23:15 15,1 C 90 % 1009,5 hPa 0,0 l/m 0,0 km/h (0 Bft) S 172 0 min 0,000 mm 0,0 UV-I 0 W/m 13,5 C 15,1 C 0,0 km/h (0 Bft) 0,00 %
04.05.2015 23:30 15,0 C 91 % 1009,4 hPa 0,0 l/m 0,0 km/h (0 Bft) S 176 0 min 0,000 mm 0,0 UV-I 0 W/m 13,5 C 15,0 C 0,0 km/h (0 Bft) 0,00 %
04.05.2015 23:45 14,8 C 91 % 1009,4 hPa 0,0 l/m 0,0 km/h (0 Bft) S 188 0 min 0,000 mm 0,0 UV-I 0 W/m 13,3 C 14,8 C 0,0 km/h (0 Bft) 0,00 %
_ Min-Zeit 04:15 14:15 01:30 - 00:00 - - - - - - 12:30 04:15 00:00 00:00
Minimum _ 13,1 C 63 % 1008,3 hPa - 0,0 km/h (0 Bft) - - - - - - 12,7 C 13,1 C 0,0 km/h (0 Bft) 0,00 %
_ Max-Zeit 17:45 02:00 08:45 04:15 11:30 - - 11:00 00:00 13:45 14:00 19:30 17:45 11:30 00:00
Maximum _ 20,9 C 99 % 1011,2 hPa 0,6 l/m 5,4 km/h
W-SW (1 Bft)
- - 15 min 0,000 mm 6,0 UV-I 710 W/m 15,0 C 20,9 C 7,9 km/h
W-SW (2 Bft)
0,00 %
Durchschnitt _ 16,7 C 83 % 1009,5 hPa #0,9 l/m 0,4 km/h (0 Bft) W-SW - #5:30 h #0,000 mm 2,1 UV-I 267 W/m 13,5 C 16,7 C 1,2 km/h (1 Bft) 0,00 %